| time (UTC) | temp F | wind direction | speed MPH | gust MPH | rain 1hr in | rain 24hr in | rain mn in | humidity % | barometer mb |
| 20260505124139 | 68 | 85 | 2.0 | 2.0 | 0.00 | 0.00 | 0.00 | 55 | 1015.2 |
| 20260505123635 | 67 | 63 | 0.0 | 1.0 | 0.00 | 0.00 | 0.00 | 56 | 1015.1 |
| 20260505123132 | 66 | 241 | 2.0 | 2.0 | 0.00 | 0.00 | 0.00 | 56 | 1015.0 |
| 20260505122629 | 66 | 295 | 2.0 | 3.0 | 0.00 | 0.00 | 0.00 | 57 | 1015.1 |
| 20260505122126 | 66 | 140 | 0.0 | 1.0 | 0.00 | 0.00 | 0.00 | 57 | 1015.0 |
| 20260505121622 | 66 | 95 | 0.0 | 0.0 | 0.00 | 0.00 | 0.00 | 57 | 1015.0 |
| 20260505121119 | 65 | 96 | 1.0 | 2.0 | 0.00 | 0.00 | 0.00 | 57 | 1014.9 |
| 20260505120615 | 65 | 7 | 0.0 | 0.0 | 0.00 | 0.00 | 0.00 | 57 | 1014.7 |
| 20260505120111 | 65 | 102 | 1.0 | 1.0 | 0.00 | 0.00 | 0.00 | 59 | 1014.8 |
| 20260505115606 | 65 | 299 | 2.0 | 3.0 | 0.00 | 0.00 | 0.00 | 58 | 1014.8 |
| 20260505115104 | 64 | 206 | 1.0 | 2.0 | 0.00 | 0.00 | 0.00 | 58 | 1014.9 |
| 20260505114600 | 64 | 20 | 1.0 | 2.0 | 0.00 | 0.00 | 0.00 | 58 | 1014.6 |
| 20260505114057 | 64 | 158 | 1.0 | 2.0 | 0.00 | 0.00 | 0.00 | 59 | 1014.7 |
| 20260505113553 | 64 | 332 | 0.0 | 0.0 | 0.00 | 0.00 | 0.00 | 58 | 1014.6 |
| 20260505113050 | 64 | 229 | 0.0 | 1.0 | 0.00 | 0.00 | 0.00 | 59 | 1014.6 |
| 20260505112546 | 64 | 102 | 0.0 | 1.0 | 0.00 | 0.00 | 0.00 | 59 | 1014.5 |
| 20260505112044 | 64 | 27 | 1.0 | 3.0 | 0.00 | 0.00 | 0.00 | 59 | 1014.4 |
| 20260505111538 | 64 | 25 | 1.0 | 1.0 | 0.00 | 0.00 | 0.00 | 59 | 1014.6 |
| 20260505111035 | 63 | 197 | 1.0 | 2.0 | 0.00 | 0.00 | 0.00 | 58 | 1014.3 |
| 20260505110531 | 63 | 55 | 1.0 | 1.0 | 0.00 | 0.00 | 0.00 | 59 | 1014.2 |
| 20260505101958 | 62 | 183 | 0.0 | 1.0 | 0.00 | 0.00 | 0.00 | 59 | 1014.0 |
| 20260505101455 | 62 | 72 | 0.0 | 0.0 | 0.00 | 0.00 | 0.00 | 60 | 1014.0 |
| 20260505100952 | 62 | 50 | 1.0 | 1.0 | 0.00 | 0.00 | 0.00 | 60 | 1013.9 |
| 20260505100449 | 62 | 71 | 0.0 | 1.0 | 0.00 | 0.00 | 0.00 | 60 | 1013.8 |
| 20260505095945 | 62 | 69 | 1.0 | 1.0 | 0.00 | 0.00 | 0.00 | 59 | 1013.8 |
| 20260505095442 | 62 | 63 | 1.0 | 1.0 | 0.00 | 0.00 | 0.00 | 59 | 1013.6 |
| 20260505094938 | 62 | 104 | 1.0 | 1.0 | 0.00 | 0.00 | 0.00 | 59 | 1013.7 |
| 20260505094435 | 62 | 78 | 0.0 | 0.0 | 0.00 | 0.00 | 0.00 | 59 | 1013.7 |
| 20260505093931 | 62 | 61 | 0.0 | 1.0 | 0.00 | 0.00 | 0.00 | 59 | 1013.7 |
| 20260505093428 | 62 | 68 | 0.0 | 1.0 | 0.00 | 0.00 | 0.00 | 60 | 1013.6 |
| 20260505092925 | 62 | 108 | 1.0 | 1.0 | 0.00 | 0.00 | 0.00 | 59 | 1013.6 |
| 20260505092423 | 62 | 82 | 1.0 | 2.0 | 0.00 | 0.00 | 0.00 | 59 | 1013.5 |
| 20260505091920 | 62 | 149 | 1.0 | 1.0 | 0.00 | 0.00 | 0.00 | 60 | 1013.7 |
| 20260505091418 | 62 | 63 | 1.0 | 1.0 | 0.00 | 0.00 | 0.00 | 60 | 1013.5 |
| 20260505090916 | 62 | 292 | 2.0 | 2.0 | 0.00 | 0.00 | 0.00 | 59 | 1013.7 |
| 20260505090414 | 63 | 118 | 0.0 | 1.0 | 0.00 | 0.00 | 0.00 | 59 | 1013.5 |
| 20260505085911 | 63 | 45 | 2.0 | 2.0 | 0.00 | 0.00 | 0.00 | 59 | 1013.7 |
| 20260505085409 | 63 | 55 | 1.0 | 1.0 | 0.00 | 0.00 | 0.00 | 58 | 1013.6 |
| 20260505084907 | 63 | 88 | 1.0 | 2.0 | 0.00 | 0.00 | 0.00 | 59 | 1013.7 |
| 20260505084405 | 63 | 70 | 0.0 | 0.0 | 0.00 | 0.00 | 0.00 | 59 | 1013.6 |
| 20260505083903 | 62 | 255 | 2.0 | 2.0 | 0.00 | 0.00 | 0.00 | 60 | 1013.6 |
| 20260505083400 | 62 | 119 | 1.0 | 1.0 | 0.00 | 0.00 | 0.00 | 60 | 1013.6 |
| 20260505082855 | 62 | 152 | 0.0 | 0.0 | 0.00 | 0.00 | 0.00 | 60 | 1013.5 |
| 20260505082352 | 63 | 67 | 0.0 | 1.0 | 0.00 | 0.00 | 0.00 | 59 | 1013.6 |
| 20260505081849 | 63 | 220 | 2.0 | 3.0 | 0.00 | 0.00 | 0.00 | 59 | 1013.5 |
| 20260505081345 | 62 | 40 | 1.0 | 2.0 | 0.00 | 0.00 | 0.00 | 60 | 1013.3 |
| 20260505080842 | 62 | 301 | 0.0 | 1.0 | 0.00 | 0.00 | 0.00 | 60 | 1013.6 |
| 20260505080338 | 62 | 119 | 0.0 | 0.0 | 0.00 | 0.00 | 0.00 | 60 | 1013.6 |
| 20260505075833 | 62 | 242 | 1.0 | 1.0 | 0.00 | 0.00 | 0.00 | 61 | 1013.7 |
| 20260505075331 | 62 | 145 | 1.0 | 1.0 | 0.00 | 0.00 | 0.00 | 62 | 1013.5 |
| 20260505074828 | 62 | 48 | 1.0 | 2.0 | 0.00 | 0.00 | 0.00 | 62 | 1013.6 |
| 20260505074325 | 62 | 123 | 0.0 | 1.0 | 0.00 | 0.00 | 0.00 | 62 | 1013.7 |
| 20260505073822 | 62 | 79 | 0.0 | 0.0 | 0.00 | 0.00 | 0.00 | 63 | 1013.5 |
| 20260505073320 | 61 | 85 | 1.0 | 1.0 | 0.00 | 0.00 | 0.00 | 63 | 1013.6 |
| 20260505072817 | 61 | 218 | 1.0 | 1.0 | 0.00 | 0.00 | 0.00 | 64 | 1013.6 |
| 20260505072313 | 61 | 68 | 0.0 | 1.0 | 0.00 | 0.00 | 0.00 | 64 | 1013.6 |
| 20260505071809 | 61 | 59 | 0.0 | 1.0 | 0.00 | 0.00 | 0.00 | 64 | 1013.5 |
| 20260505071306 | 61 | 81 | 1.0 | 1.0 | 0.00 | 0.00 | 0.00 | 64 | 1013.5 |
| 20260505070804 | 61 | 107 | 0.0 | 0.0 | 0.00 | 0.00 | 0.00 | 64 | 1013.4 |
| 20260505070300 | 61 | 75 | 0.0 | 1.0 | 0.00 | 0.00 | 0.00 | 64 | 1013.6 |
| 20260505065755 | 61 | 97 | 0.0 | 0.0 | 0.00 | 0.00 | 0.00 | 64 | 1013.5 |
| 20260505065252 | 61 | 77 | 1.0 | 1.0 | 0.00 | 0.00 | 0.00 | 64 | 1013.4 |
| 20260505064749 | 61 | 104 | 0.0 | 0.0 | 0.00 | 0.00 | 0.00 | 64 | 1013.5 |
| 20260505064247 | 61 | 76 | 0.0 | 1.0 | 0.00 | 0.00 | 0.00 | 64 | 1013.6 |
| 20260505063744 | 61 | 80 | 1.0 | 1.0 | 0.00 | 0.00 | 0.00 | 64 | 1013.5 |
| 20260505063241 | 61 | 79 | 0.0 | 1.0 | 0.00 | 0.00 | 0.00 | 64 | 1013.7 |
| 20260505062737 | 61 | 74 | 0.0 | 0.0 | 0.00 | 0.00 | 0.00 | 63 | 1013.5 |
| 20260505062234 | 61 | 77 | 0.0 | 1.0 | 0.00 | 0.00 | 0.00 | 63 | 1013.5 |
| 20260505061731 | 62 | 80 | 0.0 | 1.0 | 0.00 | 0.00 | 0.00 | 62 | 1013.5 |
| 20260505061229 | 62 | 71 | 0.0 | 0.0 | 0.00 | 0.00 | 0.00 | 61 | 1013.4 |
| 20260505060726 | 62 | 72 | 0.0 | 0.0 | 0.00 | 0.00 | 0.00 | 61 | 1013.3 |
| 20260505060224 | 62 | 73 | 0.0 | 0.0 | 0.00 | 0.00 | 0.00 | 62 | 1013.5 |
| 20260505055718 | 62 | 72 | 1.0 | 1.0 | 0.00 | 0.00 | 0.00 | 62 | 1013.5 |
| 20260505055215 | 62 | 74 | 0.0 | 0.0 | 0.00 | 0.00 | 0.00 | 62 | 1013.5 |
| 20260505054713 | 62 | 75 | 0.0 | 0.0 | 0.00 | 0.00 | 0.00 | 62 | 1013.6 |
| 20260505054210 | 62 | 75 | 0.0 | 0.0 | 0.00 | 0.00 | 0.00 | 62 | 1013.5 |
| 20260505053709 | 62 | 75 | 0.0 | 1.0 | 0.00 | 0.00 | 0.00 | 62 | 1013.6 |
| 20260505053204 | 62 | 81 | 0.0 | 0.0 | 0.00 | 0.00 | 0.00 | 62 | 1013.6 |
| 20260505052702 | 62 | 73 | 1.0 | 1.0 | 0.00 | 0.00 | 0.00 | 63 | 1013.8 |
| 20260505052158 | 62 | 77 | 0.0 | 0.0 | 0.00 | 0.00 | 0.00 | 64 | 1013.6 |
| 20260505051656 | 62 | 71 | 0.0 | 1.0 | 0.00 | 0.00 | 0.00 | 65 | 1013.6 |
| 20260505051154 | 61 | 79 | 0.0 | 1.0 | 0.00 | 0.00 | 0.00 | 66 | 1013.6 |
| 20260505050651 | 62 | 77 | 0.0 | 0.0 | 0.00 | 0.00 | 0.00 | 66 | 1013.6 |
| 20260505050149 | 62 | 74 | 0.0 | 0.0 | 0.00 | 0.00 | 0.00 | 67 | 1013.5 |
| 20260505041619 | 62 | 80 | 0.0 | 0.0 | 0.00 | 0.00 | 0.00 | 69 | 1013.7 |
| 20260505041117 | 62 | 75 | 1.0 | 1.0 | 0.00 | 0.00 | 0.00 | 69 | 1013.6 |
| 20260505040613 | 62 | 77 | 0.0 | 1.0 | 0.00 | 0.00 | 0.00 | 68 | 1013.4 |
| 20260505040110 | 63 | 77 | 0.0 | 1.0 | 0.00 | 0.00 | 0.00 | 68 | 1013.5 |
| 20260505035607 | 63 | 78 | 0.0 | 1.0 | 0.00 | 0.00 | 0.00 | 67 | 1013.5 |
| 20260505035103 | 63 | 65 | 0.0 | 0.0 | 0.00 | 0.00 | 0.00 | 67 | 1013.6 |
| 20260505034600 | 63 | 75 | 0.0 | 0.0 | 0.00 | 0.00 | 0.00 | 66 | 1013.3 |
| 20260505034056 | 63 | 100 | 1.0 | 1.0 | 0.00 | 0.00 | 0.00 | 65 | 1013.4 |
| 20260505033553 | 64 | 78 | 0.0 | 0.0 | 0.00 | 0.00 | 0.00 | 65 | 1013.2 |
| 20260505033052 | 64 | 84 | 0.0 | 1.0 | 0.00 | 0.00 | 0.00 | 65 | 1013.4 |
| 20260505032550 | 64 | 100 | 0.0 | 1.0 | 0.00 | 0.00 | 0.00 | 66 | 1013.3 |
| 20260505032046 | 64 | 77 | 1.0 | 1.0 | 0.00 | 0.00 | 0.00 | 66 | 1013.3 |
| 20260505031543 | 64 | 63 | 1.0 | 1.0 | 0.00 | 0.00 | 0.00 | 66 | 1013.4 |
| 20260505031039 | 63 | 78 | 0.0 | 0.0 | 0.00 | 0.00 | 0.00 | 67 | 1013.3 |
| 20260505030537 | 63 | 114 | 1.0 | 3.0 | 0.00 | 0.00 | 0.00 | 67 | 1013.4 |
| 20260505030032 | 63 | 78 | 1.0 | 2.0 | 0.00 | 0.00 | 0.00 | 68 | 1013.3 |
| 20260505025528 | 64 | 108 | 0.0 | 0.0 | 0.00 | 0.00 | 0.00 | 68 | 1013.4 |
| 20260505025027 | 64 | 77 | 0.0 | 1.0 | 0.00 | 0.00 | 0.00 | 67 | 1013.4 |
| 20260505024524 | 64 | 85 | 0.0 | 0.0 | 0.00 | 0.00 | 0.00 | 67 | 1013.4 |
| 20260505024021 | 64 | 73 | 1.0 | 2.0 | 0.00 | 0.00 | 0.00 | 66 | 1013.2 |
| 20260505023518 | 64 | 79 | 1.0 | 1.0 | 0.00 | 0.00 | 0.00 | 65 | 1013.3 |
| 20260505023016 | 64 | 62 | 0.0 | 1.0 | 0.00 | 0.00 | 0.00 | 64 | 1013.3 |
| 20260505022513 | 64 | 68 | 1.0 | 2.0 | 0.00 | 0.00 | 0.00 | 63 | 1013.5 |
| 20260505022010 | 65 | 320 | 1.0 | 1.0 | 0.00 | 0.00 | 0.00 | 62 | 1013.4 |
| 20260505021507 | 65 | 66 | 1.0 | 1.0 | 0.00 | 0.00 | 0.00 | 60 | 1013.4 |
| 20260505021003 | 65 | 60 | 1.0 | 2.0 | 0.00 | 0.00 | 0.00 | 59 | 1013.2 |
| 20260505020458 | 66 | 76 | 1.0 | 1.0 | 0.00 | 0.00 | 0.00 | 58 | 1013.5 |
| 20260505015954 | 65 | 84 | 1.0 | 1.0 | 0.00 | 0.00 | 0.00 | 58 | 1013.2 |
| 20260505015452 | 65 | 91 | 0.0 | 0.0 | 0.00 | 0.00 | 0.00 | 59 | 1013.1 |
| 20260505014949 | 65 | 75 | 1.0 | 1.0 | 0.00 | 0.00 | 0.00 | 60 | 1013.0 |
| 20260505014446 | 65 | 97 | 1.0 | 1.0 | 0.00 | 0.00 | 0.00 | 61 | 1013.0 |
| 20260505013943 | 65 | 76 | 1.0 | 1.0 | 0.00 | 0.00 | 0.00 | 61 | 1013.1 |
| 20260505013440 | 65 | 83 | 1.0 | 1.0 | 0.00 | 0.00 | 0.00 | 61 | 1013.0 |
| 20260505012937 | 65 | 66 | 1.0 | 1.0 | 0.00 | 0.00 | 0.00 | 61 | 1013.2 |
| 20260505012436 | 65 | 75 | 0.0 | 0.0 | 0.00 | 0.00 | 0.00 | 61 | 1013.0 |
| 20260505011932 | 65 | 56 | 0.0 | 0.0 | 0.00 | 0.00 | 0.00 | 61 | 1013.0 |
| 20260505011428 | 65 | 53 | 0.0 | 0.0 | 0.00 | 0.00 | 0.00 | 61 | 1013.0 |
| 20260505010925 | 65 | 62 | 1.0 | 2.0 | 0.00 | 0.00 | 0.00 | 61 | 1013.0 |
| 20260505010421 | 65 | 77 | 1.0 | 1.0 | 0.00 | 0.00 | 0.00 | 61 | 1012.9 |
| 20260505005917 | 66 | 85 | 1.0 | 2.0 | 0.00 | 0.00 | 0.00 | 60 | 1012.9 |
| 20260505005414 | 66 | 67 | 1.0 | 1.0 | 0.00 | 0.00 | 0.00 | 60 | 1012.9 |
| 20260505004911 | 66 | 76 | 1.0 | 1.0 | 0.00 | 0.00 | 0.00 | 60 | 1012.8 |
| 20260505004407 | 66 | 74 | 1.0 | 2.0 | 0.00 | 0.00 | 0.00 | 60 | 1012.6 |
| 20260505003905 | 66 | 81 | 1.0 | 1.0 | 0.00 | 0.00 | 0.00 | 60 | 1012.8 |
| 20260505003402 | 66 | 73 | 1.0 | 1.0 | 0.00 | 0.00 | 0.00 | 60 | 1012.7 |
| 20260505002858 | 66 | 67 | 1.0 | 2.0 | 0.00 | 0.00 | 0.00 | 60 | 1012.8 |
| 20260505002354 | 66 | 79 | 1.0 | 1.0 | 0.00 | 0.00 | 0.00 | 59 | 1012.8 |
| 20260505001853 | 66 | 78 | 1.0 | 1.0 | 0.00 | 0.00 | 0.00 | 59 | 1012.7 |
| 20260505001350 | 67 | 332 | 1.0 | 1.0 | 0.00 | 0.00 | 0.00 | 58 | 1012.7 |
| 20260505000847 | 67 | 66 | 1.0 | 1.0 | 0.00 | 0.00 | 0.00 | 58 | 1012.7 |
| 20260505000345 | 67 | 68 | 1.0 | 1.0 | 0.00 | 0.00 | 0.00 | 57 | 1012.9 |
| 20260504235841 | 67 | 76 | 1.0 | 1.0 | 0.00 | 0.00 | 0.00 | 56 | 1012.8 |
| 20260504235338 | 67 | 64 | 2.0 | 2.0 | 0.00 | 0.00 | 0.00 | 55 | 1012.7 |
| 20260504234835 | 68 | 80 | 1.0 | 1.0 | 0.00 | 0.00 | 0.00 | 53 | 1012.9 |
| 20260504234333 | 68 | 69 | 1.0 | 1.0 | 0.00 | 0.00 | 0.00 | 52 | 1012.7 |
| 20260504233829 | 68 | 44 | 2.0 | 2.0 | 0.00 | 0.00 | 0.00 | 51 | 1012.8 |
| 20260504233325 | 69 | 44 | 3.0 | 3.0 | 0.00 | 0.00 | 0.00 | 50 | 1012.8 |
| 20260504232822 | 69 | 58 | 2.0 | 3.0 | 0.00 | 0.00 | 0.00 | 49 | 1012.8 |
| 20260504232319 | 69 | 71 | 0.0 | 1.0 | 0.00 | 0.00 | 0.00 | 49 | 1012.7 |
| 20260504231815 | 69 | 55 | 5.0 | 6.0 | 0.00 | 0.00 | 0.00 | 48 | 1012.7 |
| 20260504231312 | 69 | 67 | 2.0 | 3.0 | 0.00 | 0.00 | 0.00 | 48 | 1012.7 |
| 20260504230808 | 69 | 52 | 1.0 | 2.0 | 0.00 | 0.00 | 0.00 | 48 | 1012.9 |
| 20260504230306 | 69 | 21 | 2.0 | 2.0 | 0.00 | 0.00 | 0.00 | 48 | 1012.8 |
| 20260504225805 | 69 | 32 | 1.0 | 2.0 | 0.00 | 0.00 | 0.00 | 47 | 1012.8 |
| 20260504225301 | 69 | 14 | 3.0 | 5.0 | 0.00 | 0.00 | 0.00 | 47 | 1012.7 |
| 20260504224758 | 70 | 67 | 3.0 | 5.0 | 0.00 | 0.00 | 0.00 | 46 | 1012.9 |
| 20260504224255 | 70 | 93 | 2.0 | 2.0 | 0.00 | 0.00 | 0.00 | 45 | 1012.8 |
| 20260504223751 | 70 | 28 | 3.0 | 3.0 | 0.00 | 0.00 | 0.00 | 44 | 1012.8 |
| 20260504223247 | 70 | 75 | 4.0 | 6.0 | 0.00 | 0.00 | 0.00 | 44 | 1012.7 |
| 20260504222744 | 71 | 55 | 5.0 | 7.0 | 0.00 | 0.00 | 0.00 | 43 | 1012.7 |
| 20260504222241 | 71 | 71 | 2.0 | 2.0 | 0.00 | 0.00 | 0.00 | 43 | 1012.7 |
| 20260504221739 | 71 | 60 | 2.0 | 3.0 | 0.00 | 0.00 | 0.00 | 42 | 1012.7 |
| 20260504221236 | 72 | 50 | 5.0 | 7.0 | 0.00 | 0.00 | 0.00 | 42 | 1012.7 |
| 20260504220732 | 72 | 22 | 4.0 | 5.0 | 0.00 | 0.00 | 0.00 | 41 | 1012.8 |
| 20260504220229 | 72 | 331 | 2.0 | 3.0 | 0.00 | 0.00 | 0.00 | 41 | 1012.7 |
| 20260504215727 | 72 | 57 | 1.0 | 1.0 | 0.00 | 0.00 | 0.00 | 41 | 1012.6 |
| 20260504215223 | 73 | 62 | 2.0 | 2.0 | 0.00 | 0.00 | 0.00 | 40 | 1012.6 |
| 20260504214719 | 72 | 7 | 3.0 | 3.0 | 0.00 | 0.00 | 0.00 | 40 | 1012.6 |
| 20260504214216 | 73 | 142 | 1.0 | 2.0 | 0.00 | 0.00 | 0.00 | 39 | 1012.5 |
| 20260504213712 | 73 | 290 | 2.0 | 2.0 | 0.00 | 0.00 | 0.00 | 40 | 1012.6 |
| 20260504213208 | 73 | 39 | 3.0 | 3.0 | 0.00 | 0.00 | 0.00 | 40 | 1012.7 |
| 20260504212700 | 73 | 68 | 4.0 | 6.0 | 0.00 | 0.00 | 0.00 | 39 | 1012.8 |
| 20260504212156 | 73 | 34 | 1.0 | 1.0 | 0.00 | 0.00 | 0.00 | 39 | 1012.7 |
| 20260504211654 | 73 | 40 | 3.0 | 5.0 | 0.00 | 0.00 | 0.00 | 38 | 1012.7 |
| 20260504211150 | 74 | 48 | 1.0 | 2.0 | 0.00 | 0.00 | 0.00 | 39 | 1012.7 |
| 20260504210648 | 74 | 64 | 0.0 | 1.0 | 0.00 | 0.00 | 0.00 | 39 | 1012.6 |
| 20260504210144 | 73 | 97 | 3.0 | 6.0 | 0.00 | 0.00 | 0.00 | 38 | 1012.6 |
| 20260504205642 | 74 | 58 | 2.0 | 3.0 | 0.00 | 0.00 | 0.00 | 38 | 1012.7 |
| 20260504205139 | 74 | 51 | 1.0 | 2.0 | 0.00 | 0.00 | 0.00 | 39 | 1012.8 |
| 20260504204637 | 73 | 67 | 4.0 | 6.0 | 0.00 | 0.00 | 0.00 | 39 | 1012.9 |
| 20260504204136 | 74 | 73 | 2.0 | 2.0 | 0.00 | 0.00 | 0.00 | 38 | 1012.7 |
| 20260504203634 | 74 | 83 | 3.0 | 5.0 | 0.00 | 0.00 | 0.00 | 39 | 1012.8 |
| 20260504203132 | 74 | 52 | 1.0 | 2.0 | 0.00 | 0.00 | 0.00 | 38 | 1012.8 |
| 20260504202631 | 74 | 56 | 4.0 | 6.0 | 0.00 | 0.00 | 0.00 | 37 | 1012.9 |
| 20260504202129 | 76 | 40 | 1.0 | 3.0 | 0.00 | 0.00 | 0.00 | 36 | 1013.0 |
| 20260504201625 | 75 | 64 | 2.0 | 2.0 | 0.00 | 0.00 | 0.00 | 36 | 1012.9 |
| 20260504201123 | 75 | 329 | 1.0 | 1.0 | 0.00 | 0.00 | 0.00 | 36 | 1013.0 |
| 20260504200620 | 75 | 54 | 2.0 | 2.0 | 0.00 | 0.00 | 0.00 | 36 | 1013.2 |
| 20260504200116 | 75 | 114 | 0.0 | 1.0 | 0.00 | 0.00 | 0.00 | 37 | 1013.1 |
| 20260504195612 | 75 | 61 | 2.0 | 2.0 | 0.00 | 0.00 | 0.00 | 36 | 1013.2 |
| 20260504195109 | 75 | 90 | 3.0 | 5.0 | 0.00 | 0.00 | 0.00 | 36 | 1013.4 |
| 20260504194606 | 76 | 50 | 2.0 | 2.0 | 0.00 | 0.00 | 0.00 | 36 | 1013.4 |
| 20260504194101 | 76 | 191 | 0.0 | 1.0 | 0.00 | 0.00 | 0.00 | 37 | 1013.4 |
| 20260504193558 | 76 | 76 | 1.0 | 1.0 | 0.00 | 0.00 | 0.00 | 36 | 1013.6 |
| 20260504193057 | 75 | 58 | 1.0 | 1.0 | 0.00 | 0.00 | 0.00 | 38 | 1013.7 |
| 20260504192555 | 75 | 354 | 1.0 | 2.0 | 0.00 | 0.00 | 0.00 | 36 | 1013.7 |
| 20260504192052 | 75 | 83 | 0.0 | 1.0 | 0.00 | 0.00 | 0.00 | 40 | 1013.7 |
| 20260504191550 | 74 | 58 | 1.0 | 2.0 | 0.00 | 0.00 | 0.00 | 37 | 1014.0 |
| 20260504191046 | 73 | 47 | 3.0 | 5.0 | 0.00 | 0.00 | 0.00 | 37 | 1013.9 |
| 20260504190542 | 74 | 59 | 4.0 | 5.0 | 0.00 | 0.00 | 0.00 | 36 | 1014.2 |
| 20260504190038 | 74 | 300 | 2.0 | 3.0 | 0.00 | 0.00 | 0.00 | 37 | 1014.1 |
| 20260504185536 | 75 | 73 | 2.0 | 2.0 | 0.00 | 0.00 | 0.00 | 36 | 1014.2 |
| 20260504185032 | 74 | 51 | 1.0 | 1.0 | 0.00 | 0.00 | 0.00 | 36 | 1014.0 |
| 20260504184528 | 74 | 283 | 1.0 | 2.0 | 0.00 | 0.00 | 0.00 | 36 | 1014.3 |
| 20260504184023 | 74 | 234 | 3.0 | 5.0 | 0.00 | 0.00 | 0.00 | 36 | 1014.4 |
| 20260504183521 | 74 | 57 | 1.0 | 1.0 | 0.00 | 0.00 | 0.00 | 37 | 1014.7 |
| 20260504183019 | 73 | 62 | 2.0 | 2.0 | 0.00 | 0.00 | 0.00 | 36 | 1014.5 |
| 20260504182515 | 73 | 44 | 2.0 | 2.0 | 0.00 | 0.00 | 0.00 | 36 | 1014.5 |
| 20260504182013 | 74 | 82 | 1.0 | 1.0 | 0.00 | 0.00 | 0.00 | 35 | 1014.4 |
| 20260504181509 | 73 | 89 | 0.0 | 1.0 | 0.00 | 0.00 | 0.00 | 34 | 1014.7 |
| 20260504181008 | 74 | 176 | 1.0 | 1.0 | 0.00 | 0.00 | 0.00 | 36 | 1015.1 |
| 20260504180507 | 75 | 60 | 1.0 | 1.0 | 0.00 | 0.00 | 0.00 | 32 | 1014.7 |
| 20260504180005 | 74 | 40 | 1.0 | 1.0 | 0.00 | 0.00 | 0.00 | 31 | 1014.9 |
| 20260504175502 | 75 | 281 | 1.0 | 2.0 | 0.00 | 0.00 | 0.00 | 33 | 1014.9 |
| 20260504174959 | 75 | 52 | 2.0 | 2.0 | 0.00 | 0.00 | 0.00 | 33 | 1015.0 |
| 20260504174456 | 74 | 304 | 1.0 | 1.0 | 0.00 | 0.00 | 0.00 | 31 | 1014.9 |
| 20260504173953 | 75 | 293 | 3.0 | 5.0 | 0.00 | 0.00 | 0.00 | 31 | 1015.2 |
| 20260504173450 | 74 | 269 | 3.0 | 6.0 | 0.00 | 0.00 | 0.00 | 32 | 1015.5 |
| 20260504172947 | 74 | 185 | 3.0 | 5.0 | 0.00 | 0.00 | 0.00 | 32 | 1015.4 |
| 20260504172443 | 75 | 206 | 1.0 | 2.0 | 0.00 | 0.00 | 0.00 | 31 | 1015.4 |
| 20260504171940 | 74 | 151 | 0.0 | 0.0 | 0.00 | 0.00 | 0.00 | 32 | 1015.3 |
| 20260504171437 | 73 | 56 | 0.0 | 1.0 | 0.00 | 0.00 | 0.00 | 33 | 1015.3 |
| 20260504170934 | 72 | 245 | 1.0 | 1.0 | 0.00 | 0.00 | 0.00 | 32 | 1015.5 |
| 20260504170430 | 72 | 83 | 1.0 | 1.0 | 0.00 | 0.00 | 0.00 | 33 | 1015.4 |
| 20260504160349 | 70 | 82 | 1.0 | 1.0 | 0.00 | 0.00 | 0.00 | 37 | 1016.2 |
| 20260504150814 | 67 | 55 | 1.0 | 1.0 | 0.00 | 0.00 | 0.00 | 36 | 1016.9 |
| 20260504150310 | 67 | 76 | 2.0 | 2.0 | 0.00 | 0.00 | 0.00 | 41 | 1016.9 |
| 20260504141241 | 62 | 62 | 0.0 | 1.0 | 0.00 | 0.00 | 0.00 | 48 | 1017.1 |
| 20260504140737 | 62 | 261 | 1.0 | 1.0 | 0.00 | 0.00 | 0.00 | 45 | 1017.0 |
| 20260504140233 | 62 | 272 | 1.0 | 2.0 | 0.00 | 0.00 | 0.00 | 47 | 1017.3 |
| 20260504130702 | 59 | 214 | 1.0 | 1.0 | 0.00 | 0.00 | 0.00 | 51 | 1017.5 |
| 20260504130157 | 59 | 210 | 1.0 | 1.0 | 0.00 | 0.00 | 0.00 | 53 | 1017.6 |